Weather History for Winchester, VA

Change the Weather History Date:

Monday, November 25, 2013

  Actual Average Record
Temperature  
Mean Temperature 28 °F -  
Max Temperature 37 °F 53 °F 66 °F (2001)
Min Temperature 19 °F 34 °F 19 °F (2013)
Degree Days  
Heating Degree Days 37    
Moisture  
Dew Point 8 °F    
Average Humidity 39    
Maximum Humidity 68    
Minimum Humidity 28    
Precipitation  
Precipitation 0.00 in - - ()
Sea Level Pressure  
Sea Level Pressure 30.41 in    
Wind  
Wind Speed 5 mph (South)    
Max Wind Speed 10 mph    
Max Gust Speed 16 mph    
Visibility 10 miles    
Events      
Averages and records for this station are not official NWS values.
T = Trace of Precipitation, MM = Missing Value Source: NWS Daily Summary

Daily Weather History Graph

Daily Weather History Graph

Search for Another Location

Airport:

Trip Planner

Search our weather history database for the weather conditions in past years. The results will help you decide how hot, cold, wet, or windy it might be!

Date:

Astronomy

Nov. 25, 2013 Rise Set
Actual Time 7:06 AM EST 4:52 PM EST
Civil Twilight 6:37 AM EST 5:21 PM EST
Nautical Twilight 6:04 AM EST 5:54 PM EST
Astronomical Twilight 5:32 AM EST 6:26 PM EST
Moon No Moon Rise 12:24 PM EST (11/25)
Length of Visible Light 10h 43m
Length of Day
9h 45m
Waning Gibbous, 51% of the Moon is Illuminated
Nov 25
Waning Gibbous
Nov 25
Last Quarter
Dec 2
New
Dec 9
First Quarter
Dec 17
Full

Hourly Weather History & Observations

Time (EST) Temp. Windchill Dew Point Humidity Pressure Visibility Wind Dir Wind Speed Gust Speed Precip Events Conditions
12:15 AM 19.4 °F 11.5 °F 6.8 °F 58% 30.50 in 10.0 mi South 5.8 mph - N/A   Clear
12:35 AM 21.2 °F 16.4 °F 6.8 °F 54% 30.50 in 10.0 mi SSW 3.5 mph - N/A   Clear
12:55 AM 19.4 °F 12.8 °F 6.8 °F 58% 30.50 in 10.0 mi South 4.6 mph - N/A   Clear
1:15 AM - - - N/A% 30.49 in 10.0 mi South 4.6 mph - N/A   Clear
1:35 AM - - - N/A% 30.49 in 10.0 mi WSW 5.8 mph - N/A   Clear
1:55 AM - - - N/A% 30.48 in 10.0 mi Calm Calm - N/A   Clear
2:15 AM - - - N/A% 30.48 in 10.0 mi West 3.5 mph - N/A   Clear
2:35 AM - - - N/A% 30.50 in 10.0 mi Calm Calm - N/A   Clear
2:55 AM - - - N/A% 30.51 in 10.0 mi SSW 3.5 mph - N/A   Clear
3:37 AM - - - N/A% 30.51 in 10.0 mi West 4.6 mph - N/A   Clear
3:56 AM - - - N/A% 30.50 in 10.0 mi South 3.5 mph - N/A   Clear
4:19 AM - - - N/A% 30.49 in 10.0 mi Calm Calm - N/A   Clear
4:36 AM - - - N/A% 30.49 in 10.0 mi South 3.5 mph - N/A   Clear
4:56 AM - - - N/A% 30.50 in 10.0 mi WSW 4.6 mph - N/A   Clear
5:16 AM - - - N/A% 30.50 in 10.0 mi Calm Calm - N/A   Clear
5:56 AM - - - N/A% 30.49 in 10.0 mi WSW 3.5 mph - N/A   Unknown
6:17 AM - - - N/A% 30.50 in 10.0 mi SSW 3.5 mph - N/A   Unknown
6:56 AM - - - N/A% 30.50 in 10.0 mi Calm Calm - N/A   Unknown
7:16 AM - - - N/A% 30.51 in 10.0 mi Calm Calm - N/A   Unknown
7:36 AM - - - N/A% 30.51 in 10.0 mi South 4.6 mph - N/A   Unknown
7:56 AM - - - N/A% 30.52 in 10.0 mi SSW 4.6 mph - N/A   Unknown
8:15 AM - - - N/A% 30.52 in 10.0 mi SW 3.5 mph - N/A   Unknown
8:35 AM 19.4 °F 12.8 °F 10.4 °F 68% 30.52 in 10.0 mi SW 4.6 mph - N/A   Unknown
8:55 AM 21.2 °F 13.6 °F 10.4 °F 63% 30.52 in 10.0 mi SW 5.8 mph - N/A   Unknown
9:15 AM - - - N/A% 30.52 in 10.0 mi SW 5.8 mph - N/A   Unknown
9:35 AM - - - N/A% 30.50 in 10.0 mi SW 4.6 mph - N/A   Unknown
9:55 AM - - - N/A% 30.51 in 10.0 mi South 6.9 mph - N/A   Unknown
10:15 AM - - - N/A% 30.50 in 10.0 mi SSW 4.6 mph - N/A   Unknown
10:35 AM - - - N/A% 30.50 in 10.0 mi SSW 4.6 mph - N/A   Unknown
10:55 AM 30.2 °F 26.7 °F 8.6 °F 40% 30.49 in 10.0 mi South 3.5 mph - N/A   Unknown
11:15 AM 30.2 °F 24.3 °F 8.6 °F 40% 30.47 in 10.0 mi SSW 5.8 mph - N/A   Unknown
11:35 AM 32.0 °F 27.5 °F 8.6 °F 38% 30.46 in 10.0 mi SSE 4.6 mph - N/A   Unknown
11:55 AM 32.0 °F 25.6 °F 8.6 °F 38% 30.44 in 10.0 mi South 6.9 mph - N/A   Unknown
12:15 PM 33.8 °F 28.6 °F 6.8 °F 32% 30.43 in 10.0 mi South 5.8 mph - N/A   Unknown
12:35 PM 33.8 °F 28.6 °F 5.0 °F 30% 30.41 in 10.0 mi SSE 5.8 mph - N/A   Unknown
12:55 PM 33.8 °F 26.4 °F 5.0 °F 30% 30.40 in 10.0 mi SSW 9.2 mph - N/A   Unknown
1:15 PM 33.8 °F 30.8 °F 6.8 °F 32% 30.39 in 10.0 mi South 3.5 mph - N/A   Unknown
1:35 PM 35.6 °F 28.6 °F 5.0 °F 28% 30.38 in 10.0 mi SSE 9.2 mph - N/A   Unknown
1:55 PM 35.6 °F 28.0 °F 5.0 °F 28% 30.37 in 10.0 mi South 10.4 mph 16.1 mph N/A   Unknown
2:15 PM 35.6 °F 29.2 °F 6.8 °F 30% 30.36 in 10.0 mi South 8.1 mph - N/A   Unknown
2:35 PM 35.6 °F 28.0 °F 5.0 °F 28% 30.36 in 10.0 mi SSE 10.4 mph - N/A   Unknown
2:55 PM 35.6 °F 28.0 °F 5.0 °F 28% 30.35 in 10.0 mi SSE 10.4 mph - N/A   Unknown
3:15 PM 35.6 °F 29.9 °F 6.8 °F 30% 30.35 in 10.0 mi SSE 6.9 mph - N/A   Unknown
3:35 PM 37.4 °F 30.3 °F 8.6 °F 30% 30.35 in 10.0 mi South 10.4 mph - N/A   Unknown
3:55 PM 35.6 °F 28.0 °F 6.8 °F 30% 30.35 in 10.0 mi SSE 10.4 mph - N/A   Unknown
4:15 PM 33.8 °F 27.7 °F 8.6 °F 35% 30.33 in 10.0 mi SSE 6.9 mph - N/A   Unknown
4:35 PM 33.8 °F 26.4 °F 8.6 °F 35% 30.32 in 10.0 mi SSE 9.2 mph - N/A   Unknown
4:55 PM 33.8 °F 27.7 °F 8.6 °F 35% 30.32 in 10.0 mi SSE 6.9 mph - N/A   Clear
5:15 PM 32.0 °F 24.8 °F 8.6 °F 38% 30.34 in 10.0 mi SSE 8.1 mph - N/A   Clear
5:35 PM 32.0 °F 23.6 °F 8.6 °F 38% 30.32 in 10.0 mi SSE 10.4 mph - N/A   Clear
5:55 PM 32.0 °F 26.4 °F 6.8 °F 35% 30.33 in 10.0 mi SSE 5.8 mph - N/A   Clear
6:15 PM 32.0 °F 24.8 °F 8.6 °F 38% 30.31 in 10.0 mi SSE 8.1 mph - N/A   Clear
6:35 PM 32.0 °F 24.2 °F 8.6 °F 38% 30.31 in 10.0 mi SSE 9.2 mph - N/A   Clear
6:55 PM 32.0 °F 24.2 °F 8.6 °F 38% 30.30 in 10.0 mi SSE 9.2 mph - N/A   Clear
7:15 PM 32.0 °F 25.6 °F 8.6 °F 38% 30.32 in 10.0 mi SSE 6.9 mph - N/A   Clear
7:35 PM 32.0 °F 26.4 °F 8.6 °F 38% 30.31 in 10.0 mi South 5.8 mph - N/A   Clear
7:55 PM 32.0 °F 26.4 °F 8.6 °F 38% 30.31 in 10.0 mi South 5.8 mph - N/A   Clear
8:15 PM 32.0 °F 26.4 °F 8.6 °F 38% 30.30 in 10.0 mi South 5.8 mph - N/A   Clear
8:35 PM 32.0 °F 27.5 °F 8.6 °F 38% 30.30 in 10.0 mi South 4.6 mph - N/A   Clear
8:55 PM 32.0 °F 28.7 °F 8.6 °F 38% 30.30 in 10.0 mi South 3.5 mph - N/A   Clear
9:15 PM 32.0 °F 28.7 °F 10.4 °F 41% 30.29 in 10.0 mi SSE 3.5 mph - N/A   Mostly Cloudy
9:35 PM 32.0 °F 27.5 °F 10.4 °F 41% 30.29 in 10.0 mi SSE 4.6 mph - N/A   Overcast
9:55 PM 32.0 °F 27.5 °F 10.4 °F 41% 30.30 in 10.0 mi South 4.6 mph - N/A   Overcast
10:15 PM 32.0 °F 27.5 °F 10.4 °F 41% 30.30 in 10.0 mi South 4.6 mph - N/A   Overcast
10:35 PM 32.0 °F 27.5 °F 10.4 °F 41% 30.30 in 10.0 mi South 4.6 mph - N/A   Overcast
10:55 PM 32.0 °F 28.7 °F 10.4 °F 41% 30.29 in 10.0 mi South 3.5 mph - N/A   Mostly Cloudy
11:15 PM 32.0 °F 27.5 °F 10.4 °F 41% 30.29 in 10.0 mi SSW 4.6 mph - N/A   Scattered Clouds
11:35 PM 33.8 °F 30.8 °F 10.4 °F 38% 30.29 in 10.0 mi South 3.5 mph - N/A   Mostly Cloudy
11:55 PM 33.8 °F 27.0 °F 10.4 °F 38% 30.28 in 10.0 mi SW 8.1 mph - N/A   Overcast